UAL1584 KDEN-KTUS

Flight info

Callsign UAL1584
Flight time 1h 44m
Altitude 38000
Route SUDDZ1 SUDDZ ABQ SSO ZONNA2
Aircraft B738/M-SDE2E3FGHIRWXY/LB1

Departure

Time 2026-04-25 17:27
Airport Denver International Airport (KDEN)

Arrival

Time 2026-04-25 19:11
Airport Tucson International Airport (KTUS)
Time Latitude Longitude Altitude Speed Heading
2026-04-25 16:48 39.86357 -104.66859 5384 ft 0 kts 180°
2026-04-25 17:17 39.86363 -104.66859 5385 ft 4 kts 178°
2026-04-25 17:17 39.86388 -104.66864 5383 ft 4 kts 153°
2026-04-25 17:18 39.86402 -104.66876 5385 ft 4 kts 128°
2026-04-25 17:18 39.86410 -104.66900 5385 ft 1 kts 90°
2026-04-25 17:18 39.86410 -104.66906 5385 ft 1 kts 90°
2026-04-25 17:21 39.86410 -104.66904 5385 ft 1 kts 90°
2026-04-25 17:22 39.86424 -104.66858 5385 ft 11 kts 64°
2026-04-25 17:22 39.86452 -104.66786 5385 ft 15 kts 63°
2026-04-25 17:22 39.86470 -104.66611 5385 ft 14 kts 83°
2026-04-25 17:22 39.86501 -104.66489 5384 ft 14 kts 82°
2026-04-25 17:23 39.86501 -104.66365 5382 ft 14 kts 90°
2026-04-25 17:23 39.86512 -104.66246 5383 ft 13 kts 51°
2026-04-25 17:23 39.86600 -104.66225 5383 ft 14 kts
2026-04-25 17:23 39.86705 -104.66225 5376 ft 17 kts 359°
2026-04-25 17:24 39.86830 -104.66221 5373 ft 19 kts 359°
2026-04-25 17:24 39.86972 -104.66221 5370 ft 21 kts 360°
2026-04-25 17:24 39.87124 -104.66220 5364 ft 22 kts
2026-04-25 17:24 39.87273 -104.66219 5363 ft 21 kts 359°
2026-04-25 17:25 39.87419 -104.66220 5360 ft 21 kts
2026-04-25 17:25 39.87562 -104.66217 5362 ft 14 kts
2026-04-25 17:25 39.87655 -104.66213 5360 ft 13 kts
2026-04-25 17:25 39.87740 -104.66188 5359 ft 13 kts 47°
2026-04-25 17:26 39.87755 -104.66072 5356 ft 16 kts 90°
2026-04-25 17:26 39.87752 -104.65708 5352 ft 74 kts 90°
2026-04-25 17:26 39.87746 -104.64758 5345 ft 134 kts 90°
2026-04-25 17:26 39.87747 -104.63320 5407 ft 177 kts 90°
2026-04-25 17:27 39.87716 -104.61713 6201 ft 178 kts 91°
2026-04-25 17:27 39.87400 -104.60142 6934 ft 188 kts 109°
2026-04-25 17:27 39.86869 -104.58439 7157 ft 216 kts 111°
2026-04-25 17:27 39.86474 -104.57189 7277 ft 234 kts 111°
2026-04-25 17:28 39.85600 -104.54381 7587 ft 267 kts 111°
2026-04-25 17:28 39.84888 -104.52060 8099 ft 282 kts 111°
2026-04-25 17:28 39.84152 -104.49661 8892 ft 289 kts 112°
2026-04-25 17:28 39.83405 -104.47204 9649 ft 295 kts 112°
2026-04-25 17:29 39.82644 -104.44700 9987 ft 299 kts 113°
2026-04-25 17:29 39.81879 -104.42190 10058 ft 299 kts 114°
2026-04-25 17:29 39.80707 -104.39899 10187 ft 317 kts 140°
2026-04-25 17:29 39.78778 -104.38448 10385 ft 337 kts 163°
2026-04-25 17:30 39.76457 -104.37562 10567 ft 360 kts 166°
2026-04-25 17:30 39.73974 -104.36663 10736 ft 380 kts 166°
2026-04-25 17:30 39.71338 -104.36144 11167 ft 387 kts 184°
2026-04-25 17:30 39.68712 -104.36854 11851 ft 386 kts 202°
2026-04-25 17:31 39.66226 -104.38176 12574 ft 388 kts 205°
2026-04-25 17:31 39.63722 -104.39550 13207 ft 393 kts 205°
2026-04-25 17:31 39.61184 -104.40927 13851 ft 397 kts 205°
2026-04-25 17:31 39.58616 -104.42291 14474 ft 400 kts 204°
2026-04-25 17:32 39.56030 -104.43647 15168 ft 401 kts 204°
2026-04-25 17:32 39.53435 -104.45006 15795 ft 404 kts 204°
2026-04-25 17:32 39.50955 -104.46698 16370 ft 404 kts 216°
2026-04-25 17:32 39.48697 -104.48891 16976 ft 406 kts 219°
2026-04-25 17:33 39.46453 -104.51126 17596 ft 409 kts 219°
2026-04-25 17:33 39.44176 -104.53342 18197 ft 411 kts 218°
2026-04-25 17:33 39.41861 -104.55540 18719 ft 414 kts 218°
2026-04-25 17:33 39.39523 -104.57734 19250 ft 416 kts 218°
2026-04-25 17:34 39.37206 -104.59903 19733 ft 418 kts 218°
2026-04-25 17:34 39.34842 -104.62119 20242 ft 420 kts 218°
2026-04-25 17:34 39.32468 -104.64344 20759 ft 422 kts 219°
2026-04-25 17:34 39.30089 -104.66575 21209 ft 424 kts 219°
2026-04-25 17:35 39.27693 -104.68821 21673 ft 427 kts 219°
2026-04-25 17:35 39.25286 -104.71076 22135 ft 429 kts 219°
2026-04-25 17:35 39.22869 -104.73338 22603 ft 430 kts 219°
2026-04-25 17:35 39.20436 -104.75613 23061 ft 432 kts 220°
2026-04-25 17:36 39.17993 -104.77894 23496 ft 434 kts 220°
2026-04-25 17:36 39.15544 -104.80180 23850 ft 436 kts 220°
2026-04-25 17:36 39.13082 -104.82476 24210 ft 437 kts 220°
2026-04-25 17:36 39.10500 -104.84577 24537 ft 446 kts 210°
2026-04-25 17:37 39.07517 -104.85825 24898 ft 454 kts 200°
2026-04-25 17:37 39.04472 -104.86907 25193 ft 455 kts 201°
2026-04-25 17:37 39.01421 -104.88041 25449 ft 458 kts 202°
2026-04-25 17:37 38.98399 -104.89197 25749 ft 459 kts 202°
2026-04-25 17:38 38.95337 -104.90385 26047 ft 460 kts 202°
2026-04-25 17:38 38.93264 -104.91192 26247 ft 461 kts 202°
2026-04-25 17:38 38.89209 -104.92770 26783 ft 459 kts 203°
2026-04-25 17:38 38.86163 -104.93952 27257 ft 456 kts 204°
2026-04-25 17:39 38.83131 -104.95126 27600 ft 454 kts 204°
2026-04-25 17:39 38.80106 -104.96298 27945 ft 454 kts 204°
2026-04-25 17:39 38.77084 -104.97468 28337 ft 453 kts 204°
2026-04-25 17:39 38.74071 -104.98630 28717 ft 452 kts 204°
2026-04-25 17:40 38.71063 -104.99789 29185 ft 450 kts 205°
2026-04-25 17:40 38.68065 -105.00941 29592 ft 449 kts 205°
2026-04-25 17:40 38.65082 -105.02085 30051 ft 447 kts 205°
2026-04-25 17:40 38.62109 -105.03225 30454 ft 445 kts 205°
2026-04-25 17:41 38.59144 -105.04362 30802 ft 444 kts 206°
2026-04-25 17:41 38.56183 -105.05498 31111 ft 444 kts 206°
2026-04-25 17:41 38.53262 -105.06619 31384 ft 444 kts 206°
2026-04-25 17:41 38.50312 -105.07749 31756 ft 441 kts 206°
2026-04-25 17:42 38.47378 -105.08869 32198 ft 438 kts 206°
2026-04-25 17:42 38.44464 -105.09979 32611 ft 436 kts 206°
2026-04-25 17:42 38.41561 -105.11085 32945 ft 436 kts 206°
2026-04-25 17:42 38.38660 -105.12193 33284 ft 435 kts 207°
2026-04-25 17:43 38.35764 -105.13297 33613 ft 433 kts 207°
2026-04-25 17:43 38.32888 -105.14391 34038 ft 429 kts 207°
2026-04-25 17:43 38.30037 -105.15474 34374 ft 427 kts 207°
2026-04-25 17:43 38.27179 -105.16563 34559 ft 429 kts 207°
2026-04-25 17:44 38.24317 -105.17655 34713 ft 431 kts 206°
2026-04-25 17:44 38.21445 -105.18746 34948 ft 430 kts 206°
2026-04-25 17:44 38.18581 -105.19831 35246 ft 429 kts 206°
2026-04-25 17:44 38.15729 -105.20911 35530 ft 427 kts 206°
2026-04-25 17:45 38.12875 -105.21992 35729 ft 428 kts 206°
2026-04-25 17:45 38.11948 -105.22343 35751 ft 429 kts 206°
2026-04-25 17:45 38.07208 -105.24136 36187 ft 427 kts 206°
2026-04-25 17:45 38.04364 -105.25210 36428 ft 427 kts 206°
2026-04-25 17:46 38.01513 -105.26287 36666 ft 427 kts 206°
2026-04-25 17:46 37.98665 -105.27360 36929 ft 426 kts 206°
2026-04-25 17:46 37.95831 -105.28427 37157 ft 425 kts 206°
2026-04-25 17:46 37.92988 -105.29499 37296 ft 427 kts 206°
2026-04-25 17:47 37.90138 -105.30574 37442 ft 428 kts 206°
2026-04-25 17:47 37.87343 -105.31815 37603 ft 423 kts 211°
2026-04-25 17:47 37.84644 -105.33249 37787 ft 421 kts 212°
2026-04-25 17:47 37.81960 -105.34775 37800 ft 423 kts 213°
2026-04-25 17:48 37.73930 -105.39362 37823 ft 420 kts 212°
2026-04-25 17:49 37.68584 -105.42331 37824 ft 419 kts 212°
2026-04-25 17:49 37.63248 -105.45258 37804 ft 418 kts 212°
2026-04-25 17:50 37.57919 -105.48168 37821 ft 418 kts 212°
2026-04-25 17:50 37.52609 -105.51064 37836 ft 420 kts 212°
2026-04-25 17:51 37.47248 -105.53979 37885 ft 419 kts 212°
2026-04-25 17:51 37.41895 -105.56886 37893 ft 419 kts 212°
2026-04-25 17:52 37.36541 -105.59791 37910 ft 419 kts 212°
2026-04-25 17:52 37.31190 -105.62691 37915 ft 419 kts 212°
2026-04-25 17:53 37.25827 -105.65591 37824 ft 420 kts 212°
2026-04-25 17:53 37.20451 -105.68493 37809 ft 420 kts 212°
2026-04-25 17:54 37.15077 -105.71391 37802 ft 419 kts 212°
2026-04-25 17:54 37.09721 -105.74273 37802 ft 418 kts 212°
2026-04-25 17:55 37.04373 -105.77146 37801 ft 418 kts 212°
2026-04-25 17:55 36.99067 -105.79993 37813 ft 417 kts 212°
2026-04-25 17:56 36.93734 -105.82852 37801 ft 417 kts 212°
2026-04-25 17:56 36.88402 -105.85707 37815 ft 417 kts 212°
2026-04-25 17:57 36.83083 -105.88547 37802 ft 415 kts 212°
2026-04-25 17:57 36.77765 -105.91386 37807 ft 415 kts 212°
2026-04-25 17:58 36.72452 -105.94213 37821 ft 415 kts 212°
2026-04-25 17:58 36.67138 -105.97041 37811 ft 416 kts 212°
2026-04-25 17:59 36.61820 -105.99865 37776 ft 415 kts 212°
2026-04-25 17:59 36.56504 -106.02683 37800 ft 415 kts 212°
2026-04-25 18:00 36.52088 -106.05022 37801 ft 415 kts 212°
2026-04-25 18:00 36.45912 -106.08288 37820 ft 415 kts 213°
2026-04-25 18:01 36.40590 -106.11099 37797 ft 416 kts 212°
2026-04-25 18:01 36.35254 -106.13909 37775 ft 416 kts 213°
2026-04-25 18:02 36.29929 -106.16711 37778 ft 416 kts 213°
2026-04-25 18:02 36.24605 -106.19508 37788 ft 415 kts 213°
2026-04-25 18:03 36.19313 -106.22284 37815 ft 416 kts 213°
2026-04-25 18:03 36.13987 -106.25074 37869 ft 415 kts 213°
2026-04-25 18:04 36.08665 -106.27859 37916 ft 415 kts 213°
2026-04-25 18:04 36.03349 -106.30643 37963 ft 414 kts 213°
2026-04-25 18:05 35.98051 -106.33403 37993 ft 413 kts 213°
2026-04-25 18:05 35.92755 -106.36157 38015 ft 413 kts 213°
2026-04-25 18:06 35.87479 -106.38896 37990 ft 409 kts 213°
2026-04-25 18:06 35.84859 -106.40253 37780 ft 408 kts 213°
2026-04-25 18:06 35.82246 -106.41612 37798 ft 408 kts 213°
2026-04-25 18:07 35.77011 -106.44330 37810 ft 409 kts 213°
2026-04-25 18:07 35.71761 -106.47051 37819 ft 410 kts 213°
2026-04-25 18:08 35.66534 -106.49753 37805 ft 410 kts 213°
2026-04-25 18:08 35.61265 -106.52475 37805 ft 411 kts 213°
2026-04-25 18:09 35.55989 -106.55197 37790 ft 411 kts 213°
2026-04-25 18:09 35.50712 -106.57915 37783 ft 412 kts 213°
2026-04-25 18:10 35.45426 -106.60635 37793 ft 413 kts 213°
2026-04-25 18:10 35.40106 -106.63367 37788 ft 414 kts 213°
2026-04-25 18:11 35.34784 -106.66093 37789 ft 414 kts 213°
2026-04-25 18:11 35.30370 -106.68351 37789 ft 413 kts 213°
2026-04-25 18:12 35.24216 -106.71497 37809 ft 412 kts 213°
2026-04-25 18:12 35.18935 -106.74193 37798 ft 410 kts 213°
2026-04-25 18:13 35.13680 -106.76876 38011 ft 409 kts 213°
2026-04-25 18:13 35.09318 -106.79096 38019 ft 408 kts 213°
2026-04-25 18:14 35.01923 -106.83781 37978 ft 387 kts 227°
2026-04-25 18:14 34.97645 -106.87767 37791 ft 387 kts 226°
2026-04-25 18:15 34.93335 -106.91740 37777 ft 389 kts 226°
2026-04-25 18:15 34.89011 -106.95704 37772 ft 389 kts 226°
2026-04-25 18:16 34.84672 -106.99670 37776 ft 390 kts 226°
2026-04-25 18:17 34.78153 -107.05617 37764 ft 391 kts 226°
2026-04-25 18:17 34.73833 -107.09553 37776 ft 391 kts 226°
2026-04-25 18:18 34.69481 -107.13514 37768 ft 391 kts 226°
2026-04-25 18:18 34.65134 -107.17463 37777 ft 390 kts 226°
2026-04-25 18:19 34.60795 -107.21400 37767 ft 389 kts 226°
2026-04-25 18:19 34.56461 -107.25324 37768 ft 389 kts 226°
2026-04-25 18:20 34.52130 -107.29245 37771 ft 388 kts 226°
2026-04-25 18:20 34.47798 -107.33159 37782 ft 387 kts 226°
2026-04-25 18:21 34.43475 -107.37062 37781 ft 387 kts 226°
2026-04-25 18:21 34.39182 -107.40932 37778 ft 387 kts 226°
2026-04-25 18:22 34.34864 -107.44818 37777 ft 386 kts 226°
2026-04-25 18:22 34.30556 -107.48690 37770 ft 385 kts 226°
2026-04-25 18:23 34.26267 -107.52539 37807 ft 382 kts 226°
2026-04-25 18:23 34.21985 -107.56383 37773 ft 384 kts 226°
2026-04-25 18:24 34.17701 -107.60222 37774 ft 383 kts 226°
2026-04-25 18:24 34.13422 -107.64051 37774 ft 383 kts 226°
2026-04-25 18:25 34.09136 -107.67878 37778 ft 383 kts 226°
2026-04-25 18:25 34.04888 -107.71667 37784 ft 382 kts 226°
2026-04-25 18:26 34.00609 -107.75479 37791 ft 383 kts 226°
2026-04-25 18:26 33.96330 -107.79287 37783 ft 382 kts 226°
2026-04-25 18:27 33.92051 -107.83088 37752 ft 381 kts 226°
2026-04-25 18:27 33.87791 -107.86868 37785 ft 380 kts 226°
2026-04-25 18:28 33.83533 -107.90642 37806 ft 380 kts 226°
2026-04-25 18:28 33.79271 -107.94417 37801 ft 380 kts 226°
2026-04-25 18:29 33.72878 -108.00067 37804 ft 380 kts 226°
2026-04-25 18:30 33.64377 -108.07564 37824 ft 378 kts 226°
2026-04-25 18:30 33.60166 -108.11272 37809 ft 378 kts 226°
2026-04-25 18:31 33.55919 -108.15006 37822 ft 379 kts 226°
2026-04-25 18:31 33.51664 -108.18744 37835 ft 379 kts 226°
2026-04-25 18:32 33.47405 -108.22479 37842 ft 379 kts 226°
2026-04-25 18:32 33.43153 -108.26203 37849 ft 379 kts 226°
2026-04-25 18:33 33.38896 -108.29926 37838 ft 379 kts 226°
2026-04-25 18:33 33.34635 -108.33648 37807 ft 379 kts 226°
2026-04-25 18:34 33.30365 -108.37377 37834 ft 380 kts 226°
2026-04-25 18:34 33.26089 -108.41106 37842 ft 381 kts 226°
2026-04-25 18:35 33.21803 -108.44836 37829 ft 381 kts 226°
2026-04-25 18:35 33.17510 -108.48567 37849 ft 382 kts 226°
2026-04-25 18:36 33.13240 -108.52275 37836 ft 381 kts 226°
2026-04-25 18:36 33.08923 -108.55982 37844 ft 383 kts 225°
2026-04-25 18:37 33.04619 -108.59695 37814 ft 382 kts 226°
2026-04-25 18:37 33.00337 -108.63406 37841 ft 380 kts 226°
2026-04-25 18:38 32.96064 -108.67124 37843 ft 380 kts 226°
2026-04-25 18:38 32.91791 -108.70828 37834 ft 380 kts 226°
2026-04-25 18:39 32.87517 -108.74516 37817 ft 379 kts 226°
2026-04-25 18:39 32.83255 -108.78187 37852 ft 379 kts 226°
2026-04-25 18:40 32.78978 -108.81866 37848 ft 380 kts 225°
2026-04-25 18:40 32.74723 -108.85520 37808 ft 379 kts 225°
2026-04-25 18:41 32.70452 -108.89184 37825 ft 378 kts 225°
2026-04-25 18:41 32.66177 -108.92847 37822 ft 380 kts 225°
2026-04-25 18:42 32.62615 -108.95896 37819 ft 380 kts 225°
2026-04-25 18:42 32.57601 -109.00167 37617 ft 382 kts 225°
2026-04-25 18:43 32.55437 -109.02014 37088 ft 381 kts 225°
2026-04-25 18:43 32.53306 -109.03833 36591 ft 375 kts 225°
2026-04-25 18:43 32.51199 -109.05637 35996 ft 373 kts 225°
2026-04-25 18:43 32.49098 -109.07430 35378 ft 372 kts 225°
2026-04-25 18:44 32.46996 -109.09223 34739 ft 372 kts 225°
2026-04-25 18:44 32.44884 -109.11027 34083 ft 380 kts 225°
2026-04-25 18:44 32.42697 -109.12900 33373 ft 394 kts 224°
2026-04-25 18:44 32.40497 -109.14770 32598 ft 395 kts 224°
2026-04-25 18:45 32.38261 -109.16666 31852 ft 396 kts 224°
2026-04-25 18:45 32.36019 -109.18567 31095 ft 397 kts 224°
2026-04-25 18:45 32.33776 -109.20469 30331 ft 397 kts 224°
2026-04-25 18:45 32.31525 -109.22379 29483 ft 402 kts 224°
2026-04-25 18:46 32.29330 -109.24471 28532 ft 407 kts 233°
2026-04-25 18:46 32.27665 -109.27161 27697 ft 405 kts 244°
2026-04-25 18:46 32.26501 -109.30133 27211 ft 395 kts 254°
2026-04-25 18:46 32.25903 -109.33287 26708 ft 395 kts 261°
2026-04-25 18:47 32.25504 -109.36518 26208 ft 399 kts 262°
2026-04-25 18:47 32.25127 -109.39753 25706 ft 396 kts 262°
2026-04-25 18:47 32.24747 -109.42969 25213 ft 394 kts 262°
2026-04-25 18:47 32.24359 -109.46158 24711 ft 392 kts 262°
2026-04-25 18:48 32.23962 -109.49337 24234 ft 391 kts 261°
2026-04-25 18:48 32.23558 -109.52513 23725 ft 391 kts 261°
2026-04-25 18:48 32.23151 -109.55688 23189 ft 391 kts 261°
2026-04-25 18:48 32.22744 -109.58854 22652 ft 390 kts 261°
2026-04-25 18:49 32.22336 -109.62009 22134 ft 387 kts 261°
2026-04-25 18:49 32.21932 -109.65141 21639 ft 386 kts 261°
2026-04-25 18:49 32.21527 -109.68270 21136 ft 385 kts 261°
2026-04-25 18:49 32.21134 -109.71389 20703 ft 383 kts 262°
2026-04-25 18:50 32.20830 -109.74561 20383 ft 393 kts 263°
2026-04-25 18:50 32.20572 -109.77743 20029 ft 396 kts 264°
2026-04-25 18:50 32.20325 -109.80983 19665 ft 395 kts 264°
2026-04-25 18:50 32.20076 -109.84196 19318 ft 392 kts 264°
2026-04-25 18:51 32.19821 -109.87397 18972 ft 390 kts 263°
2026-04-25 18:51 32.19733 -109.88475 18853 ft 390 kts 263°
2026-04-25 18:51 32.19295 -109.93774 18275 ft 390 kts 263°
2026-04-25 18:51 32.19028 -109.96954 17884 ft 389 kts 263°
2026-04-25 18:52 32.18759 -110.00124 17513 ft 388 kts 263°
2026-04-25 18:52 32.18492 -110.03287 17151 ft 387 kts 263°
2026-04-25 18:52 32.18222 -110.06449 16790 ft 387 kts 263°
2026-04-25 18:52 32.17952 -110.09603 16447 ft 386 kts 263°
2026-04-25 18:53 32.17684 -110.12751 16110 ft 384 kts 263°
2026-04-25 18:53 32.17416 -110.15886 15762 ft 383 kts 263°
2026-04-25 18:53 32.17148 -110.19008 15411 ft 382 kts 263°
2026-04-25 18:53 32.16885 -110.22061 15091 ft 373 kts 263°
2026-04-25 18:54 32.16375 -110.27962 14441 ft 352 kts 263°
2026-04-25 18:54 32.16129 -110.30802 14128 ft 343 kts 262°
2026-04-25 18:54 32.15918 -110.33571 13843 ft 335 kts 266°
2026-04-25 18:55 32.15973 -110.36281 13621 ft 325 kts 271°
2026-04-25 18:55 32.16149 -110.38911 13399 ft 317 kts 272°
2026-04-25 18:55 32.16338 -110.41486 13151 ft 313 kts 272°
2026-04-25 18:55 32.16516 -110.44045 12956 ft 313 kts 272°
2026-04-25 18:56 32.16681 -110.46612 12764 ft 313 kts 271°
2026-04-25 18:56 32.16832 -110.49130 12629 ft 313 kts 271°
2026-04-25 18:56 32.16982 -110.51724 12387 ft 320 kts 271°
2026-04-25 18:56 32.17130 -110.54343 12168 ft 319 kts 271°
2026-04-25 18:57 32.17276 -110.56940 11949 ft 316 kts 271°
2026-04-25 18:57 32.17419 -110.59516 11726 ft 314 kts 271°
2026-04-25 18:57 32.17561 -110.62088 11515 ft 313 kts 271°
2026-04-25 18:57 32.17609 -110.62953 11457 ft 311 kts 271°
2026-04-25 18:58 32.17842 -110.67178 11130 ft 311 kts 271°
2026-04-25 18:58 32.18120 -110.72246 10707 ft 305 kts 271°
2026-04-25 18:58 32.18253 -110.74714 10504 ft 298 kts 271°
2026-04-25 18:59 32.18510 -110.79477 10115 ft 284 kts 271°
2026-04-25 18:59 32.18758 -110.84000 9766 ft 272 kts 273°
2026-04-25 19:00 32.20493 -110.87876 9380 ft 273 kts 309°
2026-04-25 19:00 32.21837 -110.89472 9172 ft 275 kts 312°
2026-04-25 19:01 32.24597 -110.92616 8803 ft 276 kts 312°
2026-04-25 19:01 32.25974 -110.94199 8605 ft 276 kts 312°
2026-04-25 19:01 32.27348 -110.95793 8400 ft 277 kts 311°
2026-04-25 19:01 32.28718 -110.97392 8212 ft 276 kts 311°
2026-04-25 19:02 32.31410 -111.00551 7856 ft 273 kts 311°
2026-04-25 19:02 32.32747 -111.02122 7617 ft 269 kts 311°
2026-04-25 19:02 32.34064 -111.03672 7437 ft 265 kts 311°
2026-04-25 19:03 32.35800 -111.05714 7209 ft 261 kts 312°
2026-04-25 19:03 32.37899 -111.08195 6980 ft 252 kts 310°
2026-04-25 19:03 32.39070 -111.09680 6958 ft 241 kts 307°
2026-04-25 19:04 32.40958 -111.12756 6940 ft 223 kts 276°
2026-04-25 19:04 32.40743 -111.14516 6976 ft 219 kts 243°
2026-04-25 19:05 32.38406 -111.16738 6971 ft 228 kts 193°
2026-04-25 19:05 32.35196 -111.16610 6952 ft 233 kts 179°
2026-04-25 19:05 32.33593 -111.16452 6934 ft 230 kts 179°
2026-04-25 19:06 32.32015 -111.16297 6918 ft 225 kts 179°
2026-04-25 19:06 32.29211 -111.14740 6696 ft 242 kts 138°
2026-04-25 19:06 32.28028 -111.13304 6430 ft 246 kts 139°
2026-04-25 19:07 32.25612 -111.10454 5898 ft 246 kts 138°
2026-04-25 19:07 32.24399 -111.09027 5597 ft 246 kts 139°
2026-04-25 19:08 32.22050 -111.06256 5182 ft 232 kts 139°
2026-04-25 19:08 32.20927 -111.04932 4897 ft 225 kts 141°
2026-04-25 19:09 32.18057 -111.01549 4188 ft 210 kts 138°
2026-04-25 19:09 32.17381 -111.00750 4029 ft 197 kts 138°
2026-04-25 19:09 32.15318 -110.98317 3562 ft 169 kts 141°
2026-04-25 19:10 32.14510 -110.97363 3265 ft 161 kts 141°
2026-04-25 19:10 32.13734 -110.96425 3036 ft 163 kts 139°
2026-04-25 19:10 32.12924 -110.95469 2778 ft 166 kts 139°
2026-04-25 19:10 32.12106 -110.94511 2588 ft 161 kts 140°
2026-04-25 19:11 32.11390 -110.93683 2611 ft 123 kts 136°
2026-04-25 19:11 32.10900 -110.93106 2626 ft 56 kts 135°
2026-04-25 19:11 32.10747 -110.92926 2632 ft 15 kts 135°
2026-04-25 19:11 32.10679 -110.92836 2636 ft 15 kts 116°
2026-04-25 19:12 32.10724 -110.92739 2637 ft 14 kts 46°
2026-04-25 19:12 32.10806 -110.92750 2634 ft 14 kts 315°
2026-04-25 19:12 32.10880 -110.92840 2628 ft 17 kts 314°
2026-04-25 19:12 32.10963 -110.92943 2625 ft 17 kts 315°
2026-04-25 19:13 32.11048 -110.93040 2623 ft 17 kts 317°
2026-04-25 19:13 32.11134 -110.93138 2620 ft 17 kts 314°
2026-04-25 19:13 32.11219 -110.93237 2619 ft 17 kts 315°
2026-04-25 19:13 32.11301 -110.93333 2616 ft 17 kts 315°
2026-04-25 19:14 32.11384 -110.93430 2614 ft 17 kts 315°
2026-04-25 19:14 32.11438 -110.93493 2612 ft 17 kts 316°
2026-04-25 19:14 32.11564 -110.93639 2603 ft 20 kts 315°
2026-04-25 19:14 32.11662 -110.93756 2599 ft 20 kts 314°
2026-04-25 19:15 32.11763 -110.93876 2590 ft 21 kts 315°
2026-04-25 19:15 32.11866 -110.93996 2593 ft 21 kts 316°
2026-04-25 19:15 32.11961 -110.94104 2586 ft 8 kts 322°
2026-04-25 19:15 32.12014 -110.94104 2589 ft 8 kts 36°
2026-04-25 19:16 32.12021 -110.94044 2585 ft 8 kts 114°
2026-04-25 19:16 32.12032 -110.93985 2589 ft 8 kts 51°
2026-04-25 19:16 32.12053 -110.93964 2585 ft 2 kts 37°
2026-04-25 19:16 32.12056 -110.93962 2592 ft 0 kts 37°